[[{"header":{"parameterUnit":"m.s-1","parameterCategory":2,"la1":30.2991,"la2":30.254,"lo1":-89.0895,"lo2":-89.0444,"dy":0.0017,"dx":0.0017,"nx":28,"ny":28,"refTime":"2024-03-26T03:00:00:Z","depth":"0","parameterNumber":2,"parameterNumberName":"U-component_of_CURRENTS"},"data":[0,0,0,0,0,0,0,0,0,0,0,0,0,0,0,0,0,0,0,0,0,0,0,0,0,0,0,0,0,0,0,0,0,0,0,0,0,0,0,0,0,0,0,0,0,0,0,0,0,0,0,0,0,0,0,0,0,0,-0.1447,-0.1446,0,-0.1382,-0.1381,-0.138,-0.1373,-0.1374,-0.1374,-0.1375,-0.1347,-0.1346,-0.1344,0,0,0,0,0,0,0,0,0,0,0,0,0,-0.1468,-0.1468,-0.1447,-0.1446,-0.1445,-0.1382,-0.1381,-0.138,-0.1373,-0.1374,-0.1375,-0.1375,-0.1347,-0.1346,-0.1344,0,0,0,0,0,0,0,0,0,0,0,0,0,-0.1435,-0.1468,-0.1447,-0.1435,-0.1434,-0.1382,-0.1381,-0.1379,-0.1372,-0.1374,-0.1375,-0.1376,-0.1348,-0.1346,-0.1344,-0.1306,0,0,-0.1337,-0.1336,0,0,0,0,0,0,0,0,-0.1437,-0.1434,-0.1438,-0.1436,-0.1434,-0.1388,-0.1378,-0.1357,-0.1372,-0.1394,-0.1375,-0.1377,-0.1364,-0.1361,-0.1343,-0.1304,-0.1303,-0.1337,-0.1335,-0.1334,-0.1334,0,0,0,0,0,0,0,-0.1439,-0.1436,-0.1419,-0.1437,-0.1435,-0.14,-0.1398,-0.1373,-0.1373,-0.1392,-0.1392,-0.1387,-0.1364,-0.1345,-0.1342,-0.1303,-0.1337,-0.1335,-0.1333,-0.1332,-0.1199,-0.1197,0,0,0,0,0,0,-0.1454,-0.1439,-0.1421,-0.1417,-0.144,-0.1399,-0.1396,-0.14,-0.1372,-0.1369,-0.1386,-0.1387,-0.1348,-0.1345,-0.1342,-0.1277,-0.1334,-0.1332,-0.1331,-0.1201,-0.1199,-0.1196,0,0,0,0,0,0,-0.1455,-0.1454,-0.1424,-0.1427,-0.1421,-0.1399,-0.1402,-0.1398,-0.1393,-0.1367,-0.1365,-0.1387,-0.1349,-0.1345,-0.1313,-0.1277,-0.1331,-0.1329,-0.1204,-0.1201,-0.1197,-0.116,0,0,0,0,0,0,-0.1456,-0.1455,-0.1459,-0.1429,-0.1422,-0.1403,-0.1401,-0.1396,-0.1388,-0.1389,-0.1367,-0.1364,-0.135,-0.1317,-0.1311,-0.1275,-0.1327,-0.1207,-0.1202,-0.1199,-0.1164,-0.1156,-0.1149,0,0,0,0,0,-0.1457,-0.1464,-0.146,-0.1458,-0.1431,-0.1403,-0.1396,-0.1382,-0.1387,-0.1382,-0.1357,-0.1366,-0.1286,-0.1313,-0.1307,-0.127,-0.1209,-0.1204,-0.1199,-0.1167,-0.1157,-0.1149,0,0,0,0,0,0,-0.1471,-0.1463,-0.1459,-0.1462,-0.1438,-0.1403,-0.1398,-0.1387,-0.1361,-0.1367,-0.1345,-0.134,-0.1299,-0.1286,-0.1316,-0.1216,-0.1246,-0.1239,-0.1223,-0.1214,-0.1206,-0.1239,-0.1325,0,0,0,0,0,-0.1477,-0.1483,-0.1461,-0.146,-0.1455,-0.1427,-0.1414,-0.1405,-0.1379,-0.137,-0.1349,-0.1315,-0.1268,-0.1247,-0.1218,-0.1166,-0.1233,-0.1133,-0.1126,-0.1119,-0.1139,-0.1173,-0.1172,-0.118,-0.118,-0.118,0,0,-0.1478,-0.1476,-0.1477,-0.1463,-0.1447,-0.1421,-0.1423,-0.1411,-0.1377,-0.137,-0.1327,-0.13,-0.1251,-0.1191,-0.1169,-0.1178,-0.1163,-0.1113,-0.1108,-0.1132,-0.1168,-0.1168,-0.1168,-0.1177,-0.1177,-0.1178,0,0,-0.1479,-0.1487,-0.1488,-0.1469,-0.1452,-0.1428,-0.1429,-0.1399,-0.138,-0.1334,-0.1308,-0.1261,-0.1204,-0.1148,-0.1113,-0.1045,-0.113,-0.1032,-0.101,-0.1042,-0.1043,-0.1045,-0.1191,-0.1206,-0.1017,-0.1017,-0.1017,0,-0.1477,-0.1481,-0.148,-0.1466,-0.1452,-0.1433,-0.1417,-0.1378,-0.1336,-0.1326,-0.1323,-0.1226,-0.1177,-0.1092,-0.1051,-0.1029,-0.1114,-0.105,-0.1037,-0.104,-0.1042,-0.1191,-0.1208,-0.1014,-0.1015,-0.1015,-0.1015,0,-0.1472,-0.1469,-0.1468,-0.1445,-0.1425,-0.1413,-0.1368,-0.1347,-0.1327,-0.1296,-0.1242,-0.1171,-0.1134,-0.1071,-0.1032,-0.0996,-0.1079,-0.1038,-0.1073,-0.104,-0.1199,-0.1217,-0.1011,-0.1012,-0.1012,-0.1013,0,0,-0.1486,-0.1469,-0.1468,-0.1483,-0.1421,-0.143,-0.1356,-0.1318,-0.1349,-0.1248,-0.1269,-0.1101,-0.1113,-0.1072,-0.1017,-0.0993,-0.1069,-0.1019,-0.1022,-0.1192,-0.1253,-0.1403,-0.1439,-0.1038,-0.1039,-0.104,-0.1382,0,-0.1483,-0.1484,-0.1455,-0.1454,-0.146,-0.1417,-0.1392,-0.1354,-0.1331,-0.1352,-0.1232,-0.1245,-0.1097,-0.1129,-0.1057,-0.1084,-0.1107,-0.0988,-0.1237,-0.1247,-0.1403,-0.1458,-0.1662,-0.199,-0.1401,-0.1404,-0.1406,0,-0.1487,-0.1497,-0.1486,-0.1533,-0.1539,-0.152,-0.1544,-0.1529,-0.1498,-0.1504,-0.1438,-0.1411,-0.1336,-0.1254,-0.1247,-0.1194,-0.1228,-0.1229,-0.1242,-0.1409,-0.1429,-0.1911,-0.2046,-0.2069,-0.1435,-0.1433,-0.1431,0,-0.1537,-0.154,-0.1548,-0.1542,-0.1553,-0.1557,-0.1582,-0.1568,-0.1636,-0.1635,-0.1727,-0.1601,-0.1649,-0.1574,-0.1515,-0.1432,-0.158,-0.148,-0.1655,-0.1672,-0.1908,-0.1942,-0.2114,-0.1523,-0.1523,-0.1522,-0.1521,0,-0.1552,-0.1583,-0.1588,-0.1594,-0.1686,-0.1664,-0.1777,-0.1781,-0.1856,-0.1991,-0.1847,-0.1951,-0.1735,-0.176,-0.1654,-0.1748,-0.1705,-0.1711,-0.1763,-0.1906,-0.1933,-0.2011,-0.1952,-0.1535,-0.1532,-0.1529,-0.1527,0,-0.1598,-0.158,-0.1631,-0.1665,-0.1699,-0.1776,-0.1935,-0.2049,-0.2101,-0.2279,-0.2311,-0.2286,-0.2335,-0.2164,-0.213,-0.2031,-0.2098,-0.2083,-0.2317,-0.2387,-0.2548,-0.2479,-0.2627,-0.2621,-0.2382,-0.2387,-0.2392,0,-0.1616,-0.1626,-0.1703,-0.1782,-0.1798,-0.1929,-0.2047,-0.2143,-0.2276,-0.2498,-0.2605,-0.2706,-0.2778,-0.2794,-0.266,-0.2619,-0.2417,-0.2767,-0.2586,-0.2645,-0.2605,-0.2418,-0.2382,-0.293,-0.2939,-0.2946,-0.2952,0,-0.1657,-0.1672,-0.1723,-0.1872,-0.199,-0.2179,-0.2345,-0.2484,-0.2641,-0.2788,-0.3034,-0.3133,-0.3245,-0.3307,-0.3229,-0.3136,-0.2817,-0.2918,-0.2902,-0.3008,-0.2896,-0.2888,-0.2672,-0.3016,-0.3009,-0.3005,-0.3001,-0.2999,-0.1702,-0.1757,-0.1819,-0.1962,-0.2132,-0.2355,-0.2426,-0.2635,-0.2837,-0.2973,-0.327,-0.337,-0.3704,-0.3647,-0.36,-0.3614,-0.3329,-0.3542,-0.3462,-0.3269,-0.3223,-0.3196,-0.3604,-0.3601,-0.3598,-0.3596,-0.3594,0,-0.1746,-0.1798,-0.1929,-0.206,-0.2216,-0.232,-0.2555,-0.2542,-0.2662,-0.2916,-0.3117,-0.3601,-0.3918,-0.4022,-0.4222,-0.4163,-0.3939,-0.4049,-0.383,-0.3763,-0.3755,-0.3737,-0.4285,-0.4285,-0.4285,-0.4285,-0.4285,-0.4285,-0.1771,-0.1854,-0.1889,-0.2057,-0.2163,-0.2242,-0.2315,-0.2306,-0.2372,-0.2517,-0.2729,-0.2927,-0.3398,-0.4294,-0.4515,-0.4434,-0.4204,-0.4215,-0.3992,-0.4013,-0.3956,-0.3901,-0.387,-0.4437,-0.4437,-0.4023,-0.4021,-0.4019]},{"header":{"parameterUnit":"m.s-1","parameterCategory":2,"la1":30.2991,"la2":30.254,"lo1":-89.0895,"lo2":-89.0444,"dy":0.0017,"dx":0.0017,"nx":28,"ny":28,"refTime":"2024-03-26T03:00:00:Z","depth":"0","parameterNumber":3,"parameterNumberName":"V-component_of_CURRENTS"},"data":[0,0,0,0,0,0,0,0,0,0,0,0,0,0,0,0,0,0,0,0,0,0,0,0,0,0,0,0,0,0,0,0,0,0,0,0,0,0,0,0,0,0,0,0,0,0,0,0,0,0,0,0,0,0,0,0,0,0,0.0143,0.0143,0,0.0183,0.0184,0.0184,0.0203,0.0202,0.0202,0.0202,0.0305,0.0308,0.0311,0,0,0,0,0,0,0,0,0,0,0,0,0,0.0149,0.0148,0.0143,0.0143,0.0144,0.0183,0.0184,0.0185,0.0203,0.0202,0.0202,0.0202,0.0304,0.0307,0.0311,0,0,0,0,0,0,0,0,0,0,0,0,0,0.0165,0.0148,0.0143,0.0156,0.0157,0.0183,0.0184,0.0185,0.0203,0.0202,0.0202,0.0202,0.0303,0.0307,0.0312,0.0348,0,0,0.0325,0.0327,0,0,0,0,0,0,0,0,0.0164,0.0166,0.0153,0.0155,0.0156,0.0185,0.0223,0.0242,0.0203,0.0188,0.0202,0.0201,0.0269,0.0277,0.0288,0.0353,0.0357,0.0326,0.0328,0.033,0.0332,0,0,0,0,0,0,0,0.0163,0.0164,0.0162,0.0154,0.0155,0.0182,0.0183,0.0227,0.0234,0.0189,0.019,0.0191,0.0271,0.0283,0.0291,0.0358,0.0326,0.033,0.0332,0.0334,0.0443,0.0443,0,0,0,0,0,0,0.015,0.0163,0.016,0.0163,0.0156,0.0181,0.0183,0.0178,0.0232,0.0238,0.0191,0.0191,0.0276,0.0285,0.0294,0.0332,0.033,0.0335,0.0337,0.0443,0.0443,0.0443,0,0,0,0,0,0,0.015,0.0149,0.0159,0.0162,0.0165,0.0181,0.0176,0.0179,0.019,0.0232,0.024,0.0197,0.0276,0.0288,0.0329,0.0337,0.0337,0.0341,0.0443,0.0443,0.0443,0.0414,0,0,0,0,0,0,0.015,0.0149,0.0144,0.0161,0.0164,0.0175,0.0176,0.018,0.019,0.0191,0.0241,0.0249,0.0277,0.0322,0.0334,0.0343,0.0344,0.0442,0.0443,0.0443,0.0415,0.0413,0.0412,0,0,0,0,0,0.015,0.0145,0.0143,0.0143,0.0155,0.0175,0.018,0.0193,0.0191,0.02,0.0227,0.0248,0.0332,0.0326,0.034,0.035,0.0442,0.0443,0.0443,0.0415,0.0413,0.0412,0,0,0,0,0,0,0.0148,0.0146,0.0145,0.014,0.0156,0.0177,0.0185,0.0192,0.0221,0.0222,0.0257,0.0269,0.0308,0.0333,0.0325,0.0381,0.0389,0.0392,0.0363,0.0362,0.036,0.0363,0.0348,0,0,0,0,0,0.0143,0.0134,0.0147,0.0142,0.015,0.0167,0.0176,0.0186,0.0209,0.0221,0.0252,0.0286,0.0322,0.0343,0.038,0.0416,0.0461,0.0429,0.0427,0.0426,0.0437,0.0476,0.0479,0.0445,0.0445,0.0445,0,0,0.0139,0.0138,0.0132,0.0141,0.0153,0.017,0.0172,0.0187,0.0203,0.023,0.0263,0.0289,0.033,0.0366,0.0385,0.0387,0.0469,0.0427,0.0425,0.0437,0.0477,0.048,0.0483,0.0445,0.0445,0.0445,0,0,0.0128,0.0128,0.0119,0.0137,0.0152,0.0169,0.0172,0.0196,0.0209,0.0243,0.0261,0.0289,0.0346,0.0371,0.0393,0.0409,0.0461,0.0417,0.0414,0.0451,0.0454,0.0458,0.0558,0.057,0.0414,0.0414,0.0413,0,0.0124,0.0113,0.0124,0.0132,0.0145,0.0168,0.0178,0.0202,0.0236,0.0249,0.0252,0.0321,0.0351,0.0392,0.0392,0.0407,0.0455,0.0415,0.0449,0.0453,0.0457,0.0558,0.0572,0.0412,0.0412,0.0412,0.0413,0,0.0109,0.011,0.0113,0.0126,0.0149,0.016,0.0196,0.0218,0.0235,0.0255,0.0296,0.0331,0.0375,0.0378,0.0393,0.043,0.0468,0.0444,0.0452,0.0459,0.0566,0.0581,0.041,0.0411,0.0411,0.0411,0,0,0.0074,0.0093,0.0094,0.01,0.0145,0.0158,0.0198,0.0232,0.0259,0.0285,0.0323,0.0357,0.0374,0.0399,0.0417,0.0437,0.0513,0.0449,0.0451,0.0548,0.0647,0.0807,0.084,0.0485,0.0487,0.0488,0.0725,0,0.0057,0.0042,0.0079,0.0096,0.0094,0.0153,0.0189,0.0229,0.0273,0.0323,0.035,0.0399,0.0385,0.0411,0.043,0.0497,0.0545,0.0455,0.0627,0.0634,0.0773,0.0859,0.1103,0.1345,0.074,0.0743,0.0745,0,0.0027,0.002,0.001,0.0061,0.0073,0.0101,0.0165,0.0206,0.0287,0.0325,0.0375,0.0424,0.0487,0.046,0.0585,0.0528,0.0593,0.0632,0.0641,0.0811,0.0822,0.1233,0.1396,0.1689,0.0768,0.0766,0.0765,0,-0.0051,-0.0017,-0.0038,-0.0022,0.0038,0.0062,0.0104,0.0186,0.0221,0.0333,0.0387,0.0468,0.0535,0.0596,0.0705,0.0651,0.0852,0.0791,0.1004,0.1018,0.1274,0.1308,0.1742,0.0879,0.0878,0.0877,0.0877,0,-0.01,-0.0104,-0.0079,-0.0092,-0.0092,-0.0004,0.0025,0.009,0.0196,0.0247,0.0375,0.0467,0.0564,0.0697,0.0756,0.0974,0.0909,0.1053,0.1096,0.1277,0.1307,0.1608,0.166,0.0886,0.0884,0.0883,0.0881,0,-0.0187,-0.017,-0.0195,-0.0155,-0.0143,-0.0149,-0.0063,-0.0046,0.0107,0.0192,0.0235,0.0478,0.0713,0.0844,0.1009,0.1085,0.1421,0.1312,0.156,0.1627,0.2096,0.2132,0.2472,0.2524,0.1619,0.1624,0.1629,0,-0.0236,-0.0269,-0.0288,-0.0329,-0.0316,-0.03,-0.0307,-0.0153,-0.0105,0.02,0.0234,0.055,0.0809,0.1198,0.1429,0.1681,0.1702,0.1979,0.1906,0.2223,0.2293,0.2221,0.2229,0.2256,0.2265,0.2273,0.2279,0,-0.0345,-0.0365,-0.0406,-0.0505,-0.0534,-0.0539,-0.0496,-0.0447,-0.0233,-0.0066,0.0261,0.0546,0.1109,0.1655,0.2028,0.2103,0.223,0.2144,0.241,0.2806,0.2819,0.2857,0.202,0.2347,0.2341,0.2336,0.2332,0.2329,-0.0445,-0.0527,-0.0615,-0.0695,-0.0744,-0.0764,-0.0738,-0.0616,-0.0468,-0.0125,0.0245,0.0832,0.1792,0.2451,0.2576,0.3085,0.2769,0.3206,0.3223,0.3118,0.3191,0.2536,0.2924,0.2921,0.2918,0.2915,0.2913,0,-0.0591,-0.0693,-0.08,-0.0895,-0.098,-0.0938,-0.087,-0.0772,-0.0574,-0.0128,0.0313,0.162,0.255,0.3242,0.4052,0.4225,0.4048,0.4248,0.4247,0.4185,0.3639,0.3696,0.4346,0.4346,0.4345,0.4345,0.4344,0.4344,-0.068,-0.0857,-0.0922,-0.1105,-0.1147,-0.1166,-0.1113,-0.0886,-0.0539,0.0221,0.1004,0.1658,0.2879,0.4463,0.5238,0.5188,0.5193,0.5178,0.5049,0.4791,0.4695,0.4603,0.4678,0.5523,0.5524,0.5613,0.5616,0.5618]}],[{"header":{"parameterUnit":"m.s-1","parameterCategory":2,"la1":30.2991,"la2":30.254,"lo1":-89.0895,"lo2":-89.0444,"dy":0.0017,"dx":0.0017,"nx":28,"ny":28,"refTime":"2024-03-26T03:00:00:Z","depth":"2","parameterNumber":2,"parameterNumberName":"U-component_of_CURRENTS"},"data":[0,0,0,0,0,0,0,0,0,0,0,0,0,0,0,0,0,0,0,0,0,0,0,0,0,0,0,0,0,0,0,0,0,0,0,0,0,0,0,0,0,0,0,0,0,0,0,0,0,0,0,0,0,0,0,0,0,0,-0.1417,-0.1417,0,-0.1353,-0.1352,-0.1351,-0.1344,-0.1345,-0.1346,-0.1347,-0.1318,-0.1317,-0.1315,0,0,0,0,0,0,0,0,0,0,0,0,0,-0.1439,-0.1439,-0.1417,-0.1417,-0.1416,-0.1353,-0.1352,-0.1351,-0.1344,-0.1345,-0.1346,-0.1347,-0.1319,-0.1317,-0.1315,0,0,0,0,0,0,0,0,0,0,0,0,0,-0.1406,-0.1439,-0.1418,-0.1406,-0.1405,-0.1353,-0.1352,-0.135,-0.1344,-0.1345,-0.1346,-0.1348,-0.1319,-0.1317,-0.1315,-0.1276,0,0,-0.1308,-0.1307,0,0,0,0,0,0,0,0,-0.1408,-0.1405,-0.1409,-0.1407,-0.1405,-0.1359,-0.1349,-0.1328,-0.1344,-0.1365,-0.1347,-0.1348,-0.1336,-0.1332,-0.1314,-0.1275,-0.1274,-0.1308,-0.1306,-0.1305,-0.1305,0,0,0,0,0,0,0,-0.141,-0.1407,-0.139,-0.1408,-0.1406,-0.1372,-0.1369,-0.1344,-0.1344,-0.1364,-0.1363,-0.1358,-0.1335,-0.1316,-0.1314,-0.1273,-0.1308,-0.1306,-0.1304,-0.1304,-0.117,-0.1168,0,0,0,0,0,0,-0.1425,-0.141,-0.1392,-0.1388,-0.1412,-0.1371,-0.1368,-0.1371,-0.1343,-0.134,-0.1357,-0.1358,-0.132,-0.1316,-0.1313,-0.1248,-0.1305,-0.1303,-0.1302,-0.1172,-0.1169,-0.1167,0,0,0,0,0,0,-0.1426,-0.1425,-0.1395,-0.1398,-0.1392,-0.137,-0.1374,-0.137,-0.1364,-0.1338,-0.1336,-0.1359,-0.1321,-0.1316,-0.1285,-0.1248,-0.1302,-0.13,-0.1175,-0.1171,-0.1168,-0.1131,0,0,0,0,0,0,-0.1427,-0.1426,-0.1431,-0.14,-0.1393,-0.1374,-0.1372,-0.1367,-0.1359,-0.136,-0.1338,-0.1336,-0.1321,-0.1288,-0.1282,-0.1246,-0.1298,-0.1177,-0.1173,-0.1169,-0.1135,-0.1127,-0.112,0,0,0,0,0,-0.1428,-0.1435,-0.1431,-0.1429,-0.1402,-0.1374,-0.1367,-0.1353,-0.1359,-0.1354,-0.1329,-0.1337,-0.1258,-0.1285,-0.1278,-0.1241,-0.1179,-0.1174,-0.117,-0.1138,-0.1128,-0.112,0,0,0,0,0,0,-0.1442,-0.1434,-0.143,-0.1433,-0.1409,-0.1374,-0.1369,-0.1358,-0.1333,-0.1339,-0.1317,-0.1311,-0.127,-0.1257,-0.1287,-0.1187,-0.1217,-0.121,-0.1195,-0.1185,-0.1178,-0.121,-0.1297,0,0,0,0,0,-0.1448,-0.1454,-0.1432,-0.1431,-0.1426,-0.1398,-0.1386,-0.1377,-0.1351,-0.1342,-0.132,-0.1286,-0.1239,-0.1219,-0.1189,-0.1137,-0.1204,-0.1104,-0.1097,-0.1091,-0.111,-0.1144,-0.1143,-0.1151,-0.1151,-0.1151,0,0,-0.145,-0.1447,-0.1448,-0.1434,-0.1418,-0.1392,-0.1394,-0.1382,-0.1349,-0.1342,-0.1298,-0.1272,-0.1223,-0.1162,-0.1141,-0.115,-0.1134,-0.1084,-0.108,-0.1103,-0.1139,-0.1139,-0.1139,-0.1148,-0.1148,-0.1149,0,0,-0.145,-0.1458,-0.146,-0.1441,-0.1423,-0.14,-0.1401,-0.137,-0.1352,-0.1306,-0.128,-0.1233,-0.1176,-0.112,-0.1085,-0.1017,-0.1101,-0.1003,-0.0982,-0.1013,-0.1015,-0.1016,-0.1163,-0.1178,-0.0988,-0.0988,-0.0988,0,-0.1449,-0.1452,-0.1451,-0.1438,-0.1423,-0.1405,-0.1388,-0.135,-0.1308,-0.1297,-0.1294,-0.1198,-0.1149,-0.1063,-0.1022,-0.1001,-0.1085,-0.1022,-0.1009,-0.1011,-0.1014,-0.1163,-0.118,-0.0986,-0.0986,-0.0986,-0.0987,0,-0.1443,-0.144,-0.1439,-0.1416,-0.1396,-0.1384,-0.1339,-0.1319,-0.1299,-0.1268,-0.1214,-0.1143,-0.1106,-0.1043,-0.1004,-0.0968,-0.1051,-0.1009,-0.1045,-0.1012,-0.1171,-0.1189,-0.0982,-0.0983,-0.0984,-0.0985,0,0,-0.1458,-0.144,-0.1439,-0.1454,-0.1392,-0.1401,-0.1327,-0.1289,-0.132,-0.1219,-0.1241,-0.1072,-0.1084,-0.1044,-0.0989,-0.0965,-0.1041,-0.0991,-0.0994,-0.1164,-0.1225,-0.137,-0.1406,-0.1009,-0.101,-0.1011,-0.1354,0,-0.1454,-0.1455,-0.1426,-0.1425,-0.1431,-0.1388,-0.1363,-0.1324,-0.1302,-0.1323,-0.1203,-0.1216,-0.1068,-0.1101,-0.1029,-0.1056,-0.1079,-0.0959,-0.1209,-0.1219,-0.1371,-0.1425,-0.111,-0.1395,-0.1373,-0.1376,-0.1378,0,-0.1458,-0.1468,-0.1457,-0.1503,-0.1509,-0.149,-0.1515,-0.1499,-0.1469,-0.1475,-0.1409,-0.1382,-0.1308,-0.1225,-0.1219,-0.1165,-0.12,-0.1201,-0.1214,-0.1376,-0.1396,-0.1408,-0.143,-0.141,-0.1408,-0.1405,-0.1403,0,-0.1508,-0.1511,-0.1519,-0.1512,-0.1524,-0.1528,-0.1552,-0.1538,-0.1607,-0.1605,-0.1698,-0.1572,-0.162,-0.1545,-0.1487,-0.1404,-0.1552,-0.1452,-0.1623,-0.164,-0.1434,-0.143,-0.1496,-0.1495,-0.1494,-0.1493,-0.1492,0,-0.1523,-0.1554,-0.1559,-0.1565,-0.1657,-0.1634,-0.1748,-0.1752,-0.1827,-0.1961,-0.1818,-0.1922,-0.1706,-0.1731,-0.1625,-0.1718,-0.1676,-0.1679,-0.173,-0.1421,-0.1412,-0.1442,-0.1432,-0.1506,-0.1504,-0.1501,-0.1499,0,-0.1569,-0.1551,-0.1602,-0.1636,-0.167,-0.1747,-0.1906,-0.202,-0.2072,-0.225,-0.2283,-0.2258,-0.2307,-0.2136,-0.2102,-0.2,-0.2008,-0.2051,-0.1767,-0.1779,-0.206,-0.2042,-0.233,-0.2338,-0.2344,-0.235,-0.2355,0,-0.1587,-0.1597,-0.1674,-0.1753,-0.1769,-0.19,-0.2018,-0.2113,-0.2246,-0.247,-0.2576,-0.2678,-0.2712,-0.2726,-0.2421,-0.2328,-0.2323,-0.219,-0.1936,-0.2122,-0.2142,-0.2114,-0.2088,-0.1671,-0.167,-0.1669,-0.1668,0,-0.1628,-0.1643,-0.1694,-0.1842,-0.1961,-0.2148,-0.2314,-0.2454,-0.2611,-0.2718,-0.2965,-0.3028,-0.2984,-0.27,-0.2552,-0.2416,-0.2151,-0.2187,-0.2422,-0.153,-0.1533,-0.1543,-0.1532,-0.1658,-0.1659,-0.166,-0.1661,-0.1661,-0.1674,-0.1728,-0.179,-0.1932,-0.2102,-0.2324,-0.2394,-0.2448,-0.2592,-0.2548,-0.2985,-0.2826,-0.2849,-0.2337,-0.2282,-0.2101,-0.2217,-0.2109,-0.2096,-0.2088,-0.1972,-0.1987,-0.2184,-0.2188,-0.2191,-0.2194,-0.2196,0,-0.1661,-0.1769,-0.1899,-0.203,-0.2101,-0.2288,-0.2523,-0.2332,-0.2205,-0.2264,-0.2278,-0.2131,-0.2033,-0.203,-0.1694,-0.1775,-0.1514,-0.1806,-0.1432,-0.1446,-0.1457,-0.1289,-0.1331,-0.1329,-0.1328,-0.1326,0,0,-0.1672,-0.1728,-0.1762,-0.1873,-0.2029,-0.1957,-0.2027,-0.1731,-0.1564,-0.1298,-0.1205,-0.1435,-0.1777,-0.1416,-0.1481,-0.1358,-0.1318,-0.126,-0.1931,-0.1481,-0.1487,-0.1613,-0.1375,0,0,0,0,0]},{"header":{"parameterUnit":"m.s-1","parameterCategory":2,"la1":30.2991,"la2":30.254,"lo1":-89.0895,"lo2":-89.0444,"dy":0.0017,"dx":0.0017,"nx":28,"ny":28,"refTime":"2024-03-26T03:00:00:Z","depth":"2","parameterNumber":3,"parameterNumberName":"V-component_of_CURRENTS"},"data":[0,0,0,0,0,0,0,0,0,0,0,0,0,0,0,0,0,0,0,0,0,0,0,0,0,0,0,0,0,0,0,0,0,0,0,0,0,0,0,0,0,0,0,0,0,0,0,0,0,0,0,0,0,0,0,0,0,0,0.012,0.012,0,0.0159,0.016,0.0161,0.0179,0.0179,0.0179,0.0178,0.0281,0.0283,0.0286,0,0,0,0,0,0,0,0,0,0,0,0,0,0.0126,0.0125,0.012,0.012,0.012,0.0159,0.016,0.0161,0.0179,0.0179,0.0178,0.0178,0.028,0.0283,0.0287,0,0,0,0,0,0,0,0,0,0,0,0,0,0.0142,0.0125,0.012,0.0132,0.0134,0.0159,0.016,0.0161,0.0179,0.0179,0.0178,0.0178,0.0278,0.0283,0.0287,0.0323,0,0,0.0301,0.0303,0,0,0,0,0,0,0,0,0.0141,0.0142,0.013,0.0131,0.0133,0.0162,0.02,0.0217,0.0179,0.0165,0.0178,0.0178,0.0245,0.0252,0.0263,0.0327,0.0332,0.0301,0.0304,0.0306,0.0307,0,0,0,0,0,0,0,0.014,0.0141,0.0138,0.013,0.0132,0.0158,0.016,0.0203,0.021,0.0166,0.0167,0.0167,0.0247,0.0259,0.0266,0.0333,0.0301,0.0305,0.0308,0.0309,0.0418,0.0418,0,0,0,0,0,0,0.0127,0.014,0.0137,0.0139,0.0133,0.0158,0.016,0.0155,0.0208,0.0214,0.0167,0.0168,0.0252,0.0261,0.027,0.0308,0.0306,0.031,0.0312,0.0418,0.0418,0.0418,0,0,0,0,0,0,0.0127,0.0126,0.0135,0.0139,0.0141,0.0157,0.0152,0.0156,0.0167,0.0208,0.0216,0.0174,0.0252,0.0264,0.0305,0.0312,0.0312,0.0316,0.0417,0.0418,0.0418,0.0389,0,0,0,0,0,0,0.0127,0.0126,0.0121,0.0137,0.014,0.0152,0.0153,0.0157,0.0167,0.0168,0.0217,0.0226,0.0252,0.0298,0.0309,0.0319,0.0319,0.0417,0.0418,0.0418,0.039,0.0389,0.0387,0,0,0,0,0,0.0127,0.0122,0.012,0.012,0.0132,0.0152,0.0157,0.0169,0.0167,0.0177,0.0204,0.0224,0.0308,0.0302,0.0315,0.0326,0.0417,0.0417,0.0418,0.0391,0.0389,0.0387,0,0,0,0,0,0,0.0125,0.0123,0.0122,0.0117,0.0133,0.0154,0.0161,0.0169,0.0197,0.0198,0.0233,0.0245,0.0284,0.0309,0.0301,0.0357,0.0364,0.0367,0.0339,0.0337,0.0336,0.0339,0.0323,0,0,0,0,0,0.012,0.0111,0.0124,0.0119,0.0127,0.0144,0.0153,0.0162,0.0186,0.0197,0.0229,0.0262,0.0298,0.0318,0.0356,0.0391,0.0436,0.0404,0.0403,0.0402,0.0412,0.0452,0.0455,0.042,0.042,0.042,0,0,0.0116,0.0115,0.0109,0.0118,0.013,0.0146,0.0149,0.0164,0.018,0.0207,0.024,0.0265,0.0306,0.0342,0.0361,0.0363,0.0444,0.0402,0.0401,0.0413,0.0452,0.0456,0.0459,0.042,0.042,0.042,0,0,0.0105,0.0105,0.0096,0.0114,0.0129,0.0146,0.0149,0.0173,0.0186,0.022,0.0238,0.0266,0.0323,0.0348,0.0369,0.0385,0.0437,0.0393,0.0391,0.0428,0.0431,0.0435,0.0534,0.0547,0.039,0.039,0.039,0,0.0101,0.009,0.0101,0.0109,0.0122,0.0145,0.0155,0.0179,0.0213,0.0226,0.0229,0.0298,0.0328,0.0369,0.0369,0.0384,0.0432,0.0391,0.0426,0.043,0.0434,0.0535,0.0549,0.0389,0.0389,0.0389,0.0389,0,0.0086,0.0087,0.009,0.0103,0.0126,0.0137,0.0173,0.0195,0.0212,0.0233,0.0273,0.0308,0.0353,0.0355,0.037,0.0408,0.0446,0.0421,0.0429,0.0436,0.0543,0.0558,0.0387,0.0387,0.0388,0.0388,0,0,0.0051,0.007,0.0071,0.0077,0.0122,0.0135,0.0175,0.0209,0.0236,0.0263,0.0301,0.0335,0.0353,0.0378,0.0395,0.0415,0.0491,0.0426,0.0429,0.0525,0.0625,0.078,0.0812,0.0463,0.0465,0.0466,0.0703,0,0.0034,0.0019,0.0056,0.0073,0.0071,0.013,0.0166,0.0207,0.0251,0.0301,0.0328,0.0377,0.0363,0.0389,0.0408,0.0475,0.0523,0.0433,0.0605,0.0612,0.0746,0.0831,0.043,0.0617,0.0718,0.072,0.0722,0,0.0004,-0.0003,-0.0013,0.0038,0.005,0.0078,0.0143,0.0183,0.0265,0.0303,0.0353,0.0402,0.0466,0.0439,0.0563,0.0507,0.0571,0.061,0.0619,0.0784,0.0794,0.0619,0.0641,0.0748,0.0746,0.0744,0.0742,0,-0.0074,-0.004,-0.006,-0.0045,0.0015,0.004,0.0082,0.0164,0.0199,0.0311,0.0365,0.0446,0.0513,0.0574,0.0683,0.0629,0.083,0.0769,0.0977,0.099,0.0698,0.0685,0.0857,0.0857,0.0856,0.0855,0.0855,0,-0.0122,-0.0126,-0.0101,-0.0114,-0.0114,-0.0026,0.0003,0.0068,0.0174,0.0225,0.0353,0.0445,0.0542,0.0675,0.0734,0.0949,0.0887,0.1026,0.1067,0.0686,0.067,0.0801,0.0791,0.0864,0.0862,0.0861,0.0859,0,-0.0209,-0.0193,-0.0217,-0.0177,-0.0165,-0.017,-0.0085,-0.0068,0.0085,0.017,0.0213,0.0455,0.0691,0.0822,0.0986,0.1059,0.1207,0.1283,0.0887,0.0881,0.1334,0.132,0.1569,0.1576,0.1583,0.1588,0.1593,0,-0.0258,-0.0291,-0.031,-0.0351,-0.0337,-0.0321,-0.0328,-0.0174,-0.0127,0.0178,0.0211,0.0528,0.0742,0.1128,0.1129,0.1312,0.1441,0.1271,0.1109,0.1396,0.141,0.1385,0.1363,0.0701,0.0698,0.0695,0.0693,0,-0.0366,-0.0386,-0.0427,-0.0526,-0.0555,-0.056,-0.0517,-0.0469,-0.0255,-0.0123,0.0205,0.0445,0.0787,0.0887,0.1168,0.1202,0.1212,0.1245,0.1586,0.0636,0.061,0.0615,0.0613,0.067,0.0672,0.0674,0.0675,0.0676,-0.0466,-0.0548,-0.0636,-0.0716,-0.0764,-0.0786,-0.076,-0.0765,-0.0666,-0.0519,-0.0073,0.0173,0.0521,0.0689,0.0913,0.1043,0.1103,0.1151,0.1141,0.1138,0.1049,0.1042,0.1168,0.1172,0.1177,0.1181,0.1184,0,-0.0631,-0.0714,-0.082,-0.0916,-0.1025,-0.0959,-0.0892,-0.0938,-0.0944,-0.0844,-0.0641,-0.0288,-0.0064,0.0401,0.0436,0.0705,0.0479,0.0904,0.0514,0.053,0.0547,0.0415,0.0373,0.0374,0.0375,0.0376,0,0,-0.0725,-0.0906,-0.0972,-0.1169,-0.1197,-0.13,-0.1249,-0.1342,-0.1324,-0.1302,-0.1159,-0.0946,-0.0204,-0.0226,0.0053,0.0204,0.0282,0.0178,0.0742,0.0237,0.0252,0.0561,0.0365,0,0,0,0,0]}],[{"header":{"parameterUnit":"m.s-1","parameterCategory":2,"la1":30.2991,"la2":30.254,"lo1":-89.0895,"lo2":-89.0444,"dy":0.0017,"dx":0.0017,"nx":28,"ny":28,"refTime":"2024-03-26T03:00:00:Z","depth":"4","parameterNumber":2,"parameterNumberName":"U-component_of_CURRENTS"},"data":[0,0,0,0,0,0,0,0,0,0,0,0,0,0,0,0,0,0,0,0,0,0,0,0,0,0,0,0,0,0,0,0,0,0,0,0,0,0,0,0,0,0,0,0,0,0,0,0,0,0,0,0,0,0,0,0,0,0,-0.0129,-0.013,0,-0.0146,-0.0146,-0.0146,-0.0164,-0.0165,-0.0165,-0.0166,-0.0144,-0.0143,-0.0142,0,0,0,0,0,0,0,0,0,0,0,0,0,-0.0073,-0.0074,-0.0129,-0.013,-0.013,-0.0146,-0.0146,-0.0146,-0.0164,-0.0165,-0.0166,-0.0166,-0.0144,-0.0143,-0.0142,0,0,0,0,0,0,0,0,0,0,0,0,0,-0.0093,-0.0075,-0.0129,-0.0143,-0.0144,-0.0146,-0.0146,-0.0146,-0.0164,-0.0165,-0.0166,-0.0166,-0.0145,-0.0143,-0.0142,-0.0118,0,0,-0.0137,-0.0136,0,0,0,0,0,0,0,0,-0.0092,-0.0094,-0.014,-0.0142,-0.0144,-0.0155,-0.0118,-0.0135,-0.0164,-0.0155,-0.0166,-0.0167,-0.0145,-0.0143,-0.0143,-0.0117,-0.0117,-0.0137,-0.0136,-0.0135,-0.0135,0,0,0,0,0,0,0,-0.009,-0.0094,-0.0134,-0.0141,-0.0143,-0.0134,-0.0138,-0.0121,-0.0144,-0.0156,-0.0157,-0.0162,-0.0145,-0.0144,-0.0142,-0.0116,-0.0137,-0.0136,-0.0135,-0.0134,-0.0063,-0.0062,0,0,0,0,0,0,-0.0094,-0.0093,-0.0133,-0.0135,-0.0121,-0.0135,-0.0139,-0.0149,-0.0145,-0.0145,-0.0161,-0.0163,-0.0146,-0.0144,-0.0142,-0.0122,-0.0135,-0.0134,-0.0133,-0.0064,-0.0063,-0.0062,0,0,0,0,0,0,-0.0092,-0.0097,-0.0133,-0.0115,-0.0119,-0.0135,-0.0147,-0.0149,-0.0159,-0.015,-0.015,-0.017,-0.0147,-0.0144,-0.0133,-0.0121,-0.0133,-0.0132,-0.0065,-0.0064,-0.0063,-0.0077,0,0,0,0,0,0,-0.0091,-0.0097,-0.0107,-0.0116,-0.012,-0.0141,-0.0147,-0.0149,-0.0161,-0.0163,-0.0157,-0.0155,-0.0147,-0.0135,-0.0131,-0.0119,-0.0131,-0.0067,-0.0065,-0.0063,-0.0078,-0.0077,-0.0075,0,0,0,0,0,-0.0089,-0.0102,-0.0108,-0.0113,-0.0134,-0.0141,-0.0143,-0.0155,-0.0161,-0.0166,-0.0159,-0.0156,-0.012,-0.0133,-0.0129,-0.0116,-0.0068,-0.0065,-0.0063,-0.0079,-0.0077,-0.0075,0,0,0,0,0,0,-0.0082,-0.0105,-0.0112,-0.0132,-0.0139,-0.0146,-0.0156,-0.0158,-0.0157,-0.0164,-0.015,-0.0148,-0.0135,-0.0118,-0.0133,-0.0088,-0.009,-0.0087,-0.0103,-0.0101,-0.01,-0.0132,-0.0129,0,0,0,0,0,-0.0086,-0.0104,-0.0116,-0.0132,-0.014,-0.0148,-0.0154,-0.0162,-0.0162,-0.0164,-0.0157,-0.014,-0.0119,-0.0107,-0.0094,-0.0069,-0.0079,-0.0053,-0.0052,-0.0051,-0.0072,-0.0052,-0.0051,-0.0055,-0.0055,-0.0055,0,0,-0.0085,-0.0103,-0.0111,-0.0132,-0.0143,-0.0157,-0.0154,-0.017,-0.0174,-0.0159,-0.0163,-0.0145,-0.0114,-0.0092,-0.0082,-0.0078,-0.0059,-0.0048,-0.0048,-0.007,-0.0049,-0.0049,-0.0049,-0.0053,-0.0054,-0.0054,0,0,-0.0098,-0.0113,-0.0135,-0.0146,-0.0169,-0.0169,-0.0175,-0.0185,-0.0185,-0.018,-0.0167,-0.0144,-0.0117,-0.009,-0.0071,-0.005,-0.006,-0.0037,-0.0049,-0.0028,-0.0028,-0.0028,-0.0065,-0.0069,-0.0026,-0.0026,-0.0026,0,-0.0098,-0.0139,-0.0139,-0.0166,-0.0187,-0.0177,-0.0206,-0.0191,-0.0193,-0.0195,-0.0186,-0.0147,-0.0116,-0.0082,-0.0071,-0.0049,-0.0062,-0.006,-0.0029,-0.0029,-0.0029,-0.0067,-0.007,-0.0027,-0.0027,-0.0027,-0.0027,0,-0.0126,-0.0167,-0.0182,-0.0215,-0.0223,-0.0251,-0.0239,-0.0239,-0.0234,-0.0223,-0.0203,-0.0158,-0.0142,-0.0104,-0.0081,-0.0056,-0.0076,-0.0039,-0.0041,-0.003,-0.007,-0.0074,-0.0028,-0.0027,-0.0027,-0.0027,0,0,-0.012,-0.0193,-0.0203,-0.0253,-0.0265,-0.0287,-0.0276,-0.0282,-0.0305,-0.0256,-0.0278,-0.0195,-0.0183,-0.0161,-0.0116,-0.0076,-0.008,-0.006,-0.0059,-0.0113,-0.0085,-0.019,-0.0204,-0.0038,-0.0038,-0.0038,-0.0123,0,-0.0156,-0.0242,-0.0251,-0.0326,-0.0379,-0.0367,-0.0373,-0.0364,-0.035,-0.0359,-0.0277,-0.0287,-0.0196,-0.0211,-0.0144,-0.0113,-0.0087,-0.0065,-0.0074,-0.0076,-0.0182,-0.021,-0.0038,-0.0125,-0.0126,-0.0127,-0.0127,0,-0.0185,-0.0256,-0.0343,-0.044,-0.0459,-0.048,-0.0523,-0.0524,-0.0495,-0.0494,-0.045,-0.0415,-0.0358,-0.0288,-0.0205,-0.02,-0.0152,-0.0107,-0.0108,-0.0208,-0.0187,-0.0129,-0.0134,-0.0134,-0.0133,-0.0133,-0.0132,0,-0.0216,-0.0323,-0.0409,-0.0438,-0.0518,-0.0549,-0.0575,-0.0567,-0.0599,-0.0591,-0.0648,-0.0539,-0.0562,-0.0432,-0.0347,-0.0283,-0.0284,-0.0183,-0.0231,-0.0239,-0.0112,-0.011,-0.0132,-0.0131,-0.0131,-0.0131,-0.0131,0,-0.0256,-0.0332,-0.0444,-0.0494,-0.0597,-0.0622,-0.0701,-0.0708,-0.0744,-0.0813,-0.0735,-0.0796,-0.0602,-0.0576,-0.0423,-0.0386,-0.035,-0.027,-0.0269,-0.0119,-0.0117,-0.0117,-0.0114,-0.0134,-0.0134,-0.0133,-0.0132,0,-0.026,-0.0333,-0.0451,-0.0574,-0.0613,-0.068,-0.0787,-0.0837,-0.0898,-0.0994,-0.1018,-0.1017,-0.1007,-0.0845,-0.0702,-0.0565,-0.0463,-0.0456,-0.0393,-0.0382,-0.0405,-0.0401,-0.0497,-0.0501,-0.0505,-0.0508,-0.0511,0,-0.0265,-0.033,-0.0498,-0.0561,-0.0617,-0.0726,-0.0787,-0.0876,-0.0943,-0.1138,-0.119,-0.1266,-0.1237,-0.1129,-0.0939,-0.0724,-0.0656,-0.061,-0.0406,-0.0454,-0.0443,-0.0433,-0.0425,-0.0517,-0.0518,-0.0519,-0.052,0,-0.0273,-0.0335,-0.043,-0.0557,-0.065,-0.0756,-0.0869,-0.0949,-0.1084,-0.1199,-0.1349,-0.1334,-0.1366,-0.119,-0.1089,-0.0893,-0.0623,-0.0646,-0.0633,-0.0441,-0.0479,-0.0462,-0.0449,-0.0533,-0.0531,-0.0529,-0.0529,0,-0.0262,-0.0323,-0.0429,-0.0534,-0.0638,-0.0721,-0.0814,-0.0949,-0.105,-0.1287,-0.1357,-0.1403,-0.1443,-0.1293,-0.1174,-0.1038,-0.0925,-0.0773,-0.075,-0.0734,-0.0751,-0.083,-0.1025,0,0,0,0,0,-0.0242,-0.0291,-0.0389,-0.0479,-0.0569,-0.0611,-0.0822,-0.092,-0.1124,-0.1225,-0.1291,-0.1322,-0.1264,-0.1257,-0.1129,-0.1159,-0.0854,-0.1,-0.0651,-0.0605,-0.059,-0.0575,0,0,0,0,0,0,-0.0226,-0.0303,-0.0363,-0.0387,-0.0409,-0.0489,-0.0615,-0.0771,-0.0847,-0.1069,-0.1036,-0.1191,-0.1108,-0.127,-0.107,-0.1057,-0.0802,-0.102,-0.1016,-0.0613,-0.06,-0.0588,-0.0567,0,0,0,0,0]},{"header":{"parameterUnit":"m.s-1","parameterCategory":2,"la1":30.2991,"la2":30.254,"lo1":-89.0895,"lo2":-89.0444,"dy":0.0017,"dx":0.0017,"nx":28,"ny":28,"refTime":"2024-03-26T03:00:00:Z","depth":"4","parameterNumber":3,"parameterNumberName":"V-component_of_CURRENTS"},"data":[0,0,0,0,0,0,0,0,0,0,0,0,0,0,0,0,0,0,0,0,0,0,0,0,0,0,0,0,0,0,0,0,0,0,0,0,0,0,0,0,0,0,0,0,0,0,0,0,0,0,0,0,0,0,0,0,0,0,-0.0678,-0.0678,0,-0.0664,-0.0664,-0.0664,-0.0679,-0.068,-0.068,-0.0681,-0.0661,-0.066,-0.0659,0,0,0,0,0,0,0,0,0,0,0,0,0,-0.0688,-0.0688,-0.0678,-0.0678,-0.0678,-0.0664,-0.0664,-0.0663,-0.0679,-0.068,-0.068,-0.0681,-0.0661,-0.066,-0.0659,0,0,0,0,0,0,0,0,0,0,0,0,0,-0.068,-0.0688,-0.0678,-0.0684,-0.0684,-0.0664,-0.0664,-0.0663,-0.0679,-0.068,-0.0681,-0.0681,-0.0662,-0.066,-0.0659,-0.0633,0,0,-0.0654,-0.0653,0,0,0,0,0,0,0,0,-0.0681,-0.068,-0.0683,-0.0683,-0.0683,-0.0674,-0.066,-0.0653,-0.0679,-0.0681,-0.0681,-0.0682,-0.0664,-0.0662,-0.0658,-0.0632,-0.0631,-0.0654,-0.0653,-0.0652,-0.0652,0,0,0,0,0,0,0,-0.0681,-0.0681,-0.0673,-0.0683,-0.0683,-0.0676,-0.0676,-0.0659,-0.0668,-0.0681,-0.0682,-0.0679,-0.0664,-0.066,-0.0658,-0.0631,-0.0654,-0.0653,-0.0652,-0.0651,-0.0549,-0.0547,0,0,0,0,0,0,-0.0683,-0.0681,-0.0674,-0.0673,-0.0684,-0.0675,-0.0675,-0.0676,-0.0669,-0.0668,-0.0679,-0.068,-0.0662,-0.066,-0.0657,-0.0599,-0.0652,-0.0651,-0.065,-0.0551,-0.0549,-0.0547,0,0,0,0,0,0,-0.0683,-0.0682,-0.0674,-0.0676,-0.0674,-0.0674,-0.0675,-0.0676,-0.0675,-0.0667,-0.0667,-0.0678,-0.0663,-0.066,-0.063,-0.06,-0.065,-0.0649,-0.0553,-0.055,-0.0548,-0.0499,0,0,0,0,0,0,-0.0684,-0.0683,-0.0687,-0.0676,-0.0674,-0.066,-0.0674,-0.0675,-0.0672,-0.0674,-0.0666,-0.0665,-0.0663,-0.0632,-0.0629,-0.0598,-0.0648,-0.0555,-0.0552,-0.0549,-0.0503,-0.0495,-0.0489,0,0,0,0,0,-0.0684,-0.069,-0.0687,-0.0687,-0.0679,-0.066,-0.0658,-0.0661,-0.0671,-0.0665,-0.0653,-0.0666,-0.0609,-0.063,-0.0626,-0.0594,-0.0557,-0.0553,-0.0549,-0.0506,-0.0497,-0.0489,0,0,0,0,0,0,-0.0703,-0.0691,-0.0689,-0.0693,-0.0675,-0.0662,-0.0663,-0.0659,-0.0646,-0.0651,-0.0645,-0.0642,-0.0601,-0.0603,-0.0627,-0.0553,-0.0583,-0.0579,-0.0553,-0.0544,-0.0536,-0.0517,-0.0646,0,0,0,0,0,-0.0705,-0.0707,-0.0687,-0.069,-0.0682,-0.067,-0.0665,-0.0661,-0.0647,-0.0643,-0.0631,-0.0612,-0.058,-0.0569,-0.0545,-0.051,-0.0525,-0.0485,-0.0477,-0.0471,-0.0451,-0.044,-0.043,-0.0534,-0.0534,-0.0534,0,0,-0.0716,-0.0709,-0.0711,-0.0693,-0.0684,-0.0653,-0.067,-0.0659,-0.0625,-0.0641,-0.0599,-0.0587,-0.0563,-0.0518,-0.05,-0.0518,-0.0457,-0.0466,-0.0461,-0.0444,-0.0435,-0.0425,-0.0416,-0.0531,-0.0531,-0.0532,0,0,-0.0724,-0.0726,-0.0721,-0.0696,-0.0675,-0.0655,-0.065,-0.0627,-0.0612,-0.057,-0.0563,-0.0526,-0.0495,-0.0457,-0.0437,-0.0374,-0.0417,-0.0378,-0.0327,-0.0317,-0.0308,-0.0301,-0.0343,-0.034,-0.0377,-0.0377,-0.0376,0,-0.0736,-0.0719,-0.0716,-0.0689,-0.0659,-0.0651,-0.0614,-0.0591,-0.0558,-0.0533,-0.0552,-0.0471,-0.0455,-0.0376,-0.0351,-0.0354,-0.0383,-0.0366,-0.0309,-0.0301,-0.0295,-0.0339,-0.0336,-0.0374,-0.0374,-0.0374,-0.0375,0,-0.0726,-0.0703,-0.0696,-0.0651,-0.0618,-0.0591,-0.0545,-0.0515,-0.0499,-0.0472,-0.0407,-0.038,-0.0332,-0.0319,-0.0313,-0.0246,-0.0296,-0.0302,-0.0335,-0.0282,-0.0332,-0.033,-0.037,-0.0371,-0.0372,-0.0372,0,0,-0.0767,-0.0702,-0.0698,-0.0662,-0.0591,-0.0568,-0.0495,-0.043,-0.0404,-0.0357,-0.0313,-0.023,-0.023,-0.0204,-0.0195,-0.0177,-0.0163,-0.022,-0.0221,-0.027,-0.0189,-0.0158,-0.0154,-0.0173,-0.0172,-0.017,-0.0258,0,-0.0754,-0.0711,-0.0661,-0.0592,-0.0558,-0.0495,-0.0438,-0.0378,-0.0341,-0.0304,-0.0247,-0.0211,-0.0183,-0.0178,-0.014,-0.0154,-0.015,-0.0142,-0.0225,-0.0228,-0.0212,-0.0145,-0.0165,-0.0256,-0.0256,-0.0255,-0.0255,0,-0.0747,-0.0718,-0.0661,-0.0568,-0.0548,-0.0498,-0.0412,-0.036,-0.0289,-0.0267,-0.0198,-0.0177,-0.01,-0.012,-0.0081,-0.0087,-0.0123,-0.0145,-0.0149,-0.0126,-0.0189,-0.031,-0.0252,-0.0252,-0.0252,-0.0253,-0.0253,0,-0.0794,-0.0706,-0.0665,-0.0631,-0.0534,-0.0487,-0.0435,-0.0357,-0.0339,-0.0252,-0.0247,-0.0148,-0.0128,-0.0112,-0.0097,-0.0111,-0.0101,-0.0134,-0.0144,-0.0147,-0.0178,-0.0184,-0.0125,-0.0124,-0.0124,-0.0124,-0.0124,0,-0.079,-0.0756,-0.069,-0.0668,-0.0634,-0.0533,-0.0501,-0.0437,-0.0379,-0.0373,-0.0245,-0.0214,-0.0126,-0.0096,-0.0103,-0.0091,-0.0098,-0.0113,-0.0141,-0.0162,-0.0165,-0.018,-0.0185,-0.0127,-0.0127,-0.0126,-0.0125,0,-0.0836,-0.0792,-0.0756,-0.0675,-0.066,-0.064,-0.0582,-0.0585,-0.0483,-0.0472,-0.0447,-0.0286,-0.0206,-0.0138,-0.012,-0.0104,-0.0106,-0.0116,-0.0156,-0.019,-0.0179,-0.018,-0.015,-0.0149,-0.0148,-0.0147,-0.0147,0,-0.0847,-0.0838,-0.081,-0.0828,-0.0792,-0.0763,-0.078,-0.0678,-0.0682,-0.052,-0.0537,-0.0391,-0.0293,-0.0223,-0.013,-0.0109,-0.0108,-0.0132,-0.0116,-0.0137,-0.0169,-0.0172,-0.0175,-0.0146,-0.0145,-0.0145,-0.0145,0,-0.0878,-0.0887,-0.088,-0.0937,-0.0957,-0.0986,-0.0975,-0.0974,-0.0858,-0.0768,-0.0618,-0.0476,-0.0366,-0.0231,-0.018,-0.0172,-0.0112,-0.0124,-0.0126,-0.0112,-0.0132,-0.0165,-0.0169,-0.0142,-0.0142,-0.0143,-0.0143,0,-0.0922,-0.0956,-0.0988,-0.1022,-0.1096,-0.1172,-0.1142,-0.1098,-0.1058,-0.0846,-0.0798,-0.0572,-0.0417,-0.0267,-0.0229,-0.0176,-0.0187,-0.0215,-0.0213,-0.0215,-0.017,-0.0201,-0.0236,0,0,0,0,0,-0.0953,-0.101,-0.1069,-0.1126,-0.1218,-0.1253,-0.1269,-0.1223,-0.1093,-0.1026,-0.0898,-0.0773,-0.0552,-0.0407,-0.0362,-0.0269,-0.022,-0.0217,-0.0265,-0.0126,-0.0129,-0.0055,0,0,0,0,0,0,-0.098,-0.1058,-0.1085,-0.1221,-0.1278,-0.1385,-0.1399,-0.1317,-0.1247,-0.1071,-0.0951,-0.0786,-0.0585,-0.0589,-0.0364,-0.0329,-0.0362,-0.0079,-0.0079,-0.0124,-0.0127,-0.013,-0.0055,0,0,0,0,0]}]]